,,Stat5,,Stat1,,Stat2,,Stat3,,Stat4,,Wind1,,Wind1,
time,status,PA1M_AVG,status,PR1M_SUM,status,RH1M_AVG,status,SR1M_AVG,status,TA1M_AVG,status,W1dAve1m,status,W1sAve1m,
2002-12-21, 00:00:00,VALID,915.842,VALID,0,VALID,95.1402,VALID,0.0339617,VALID,20.5989,VALID,132,VALID,0.552154,
2002-12-21, 00:01:00,VALID,915.843,VALID,0,VALID,95.2088,VALID,0.101885,VALID,20.5822,VALID,131,VALID,0.875401,
2002-12-21, 00:02:00,VALID,915.853,VALID,0,VALID,95.1898,VALID,0.0169808,VALID,20.579,VALID,127,VALID,0.655816,
2002-12-21, 00:03:00,VALID,915.878,VALID,0,VALID,95.2305,VALID,0.0339617,VALID,20.5561,VALID,124,VALID,0.813939,
2002-12-21, 00:04:00,VALID,915.884,VALID,0,VALID,95.4174,VALID,0.0679233,VALID,20.5698,VALID,126,VALID,0.631641,
2002-12-21, 00:05:00,VALID,915.887,VALID,0,VALID,95.5814,VALID,0.0339617,VALID,20.5596,VALID,117,VALID,0.601953,
2002-12-21, 00:06:00,VALID,915.87,VALID,0,VALID,95.5535,VALID,0.101885,VALID,20.5435,VALID,109,VALID,0.704728,
2002-12-21, 00:07:00,VALID,915.876,VALID,0,VALID,95.5992,VALID,-0.0169808,VALID,20.5283,VALID,108,VALID,0.728041,
2002-12-21, 00:08:00,VALID,915.859,VALID,0,VALID,95.6069,VALID,-0.0339617,VALID,20.4995,VALID,91,VALID,0.746995,
2002-12-21, 00:09:00,VALID,915.822,VALID,0,VALID,95.837,VALID,-0.0169808,VALID,20.5062,VALID,71,VALID,0.562309,
2002-12-21, 00:10:00,VALID,915.794,VALID,0,VALID,95.9693,VALID,-0.0679233,VALID,20.4931,VALID,57,VALID,0.634079,
2002-12-21, 00:11:00,VALID,915.774,VALID,0,VALID,96.1269,VALID,-0.0679233,VALID,20.503,VALID,55,VALID,0.831055,
2002-12-21, 00:12:00,VALID,915.706,VALID,0,VALID,96.2465,VALID,-0.0169808,VALID,20.5065,VALID,31,VALID,0.822218,
2002-12-21, 00:13:00,VALID,915.706,VALID,0,VALID,96.4054,VALID,-0.0509425,VALID,20.5229,VALID,26,VALID,0.849085,
2002-12-21, 00:14:00,VALID,915.68,VALID,0,VALID,96.5173,VALID,-0.0849042,VALID,20.5326,VALID,24,VALID,0.549409,
2002-12-21, 00:15:00,VALID,915.659,VALID,0,VALID,96.6305,VALID,-0.0849042,VALID,20.5321,VALID,24,VALID,0.398037,
2002-12-21, 00:16:00,VALID,915.649,VALID,0,VALID,96.6737,VALID,-0.0679233,VALID,20.5391,VALID,24,VALID,0.193598,
2002-12-21, 00:17:00,VALID,915.637,VALID,0,VALID,96.5707,VALID,-0.0849042,VALID,20.5356,VALID,24,VALID,0,
2002-12-21, 00:18:00,VALID,915.629,VALID,0,VALID,96.5351,VALID,-0.0679233,VALID,20.5264,VALID,24,VALID,0.0010016,
2002-12-21, 00:19:00,VALID,915.628,VALID,0,VALID,96.5211,VALID,-0.0509425,VALID,20.504,VALID,24,VALID,0.00861378,
2002-12-21, 00:20:00,VALID,915.629,VALID,0,VALID,96.4499,VALID,-0.0509425,VALID,20.468,VALID,24,VALID,0,
2002-12-21, 00:21:00,VALID,915.628,VALID,0,VALID,96.5389,VALID,-0.0849042,VALID,20.4613,VALID,24,VALID,0.0759766,
2002-12-21, 00:22:00,VALID,915.635,VALID,0,VALID,96.7068,VALID,-0.0679233,VALID,20.4839,VALID,25,VALID,0.305664,
2002-12-21, 00:23:00,VALID,915.643,VALID,0,VALID,96.4944,VALID,-0.0339617,VALID,20.4715,VALID,80,VALID,0.561928,
2002-12-21, 00:24:00,VALID,915.666,VALID,0,VALID,96.5593,VALID,0,VALID,20.4322,VALID,125,VALID,0.696652,
2002-12-21, 00:25:00,VALID,915.689,VALID,0,VALID,96.6992,VALID,-0.0169808,VALID,20.409,VALID,121,VALID,0.939823,
2002-12-21, 00:26:00,VALID,915.69,VALID,0,VALID,96.8162,VALID,-0.0509425,VALID,20.3802,VALID,114,VALID,0.931799,
2002-12-21, 00:27:00,VALID,915.705,VALID,0,VALID,96.9726,VALID,-0.101885,VALID,20.3673,VALID,121,VALID,0.866554,
2002-12-21, 00:28:00,VALID,915.694,VALID,0,VALID,97.026,VALID,-0.0339617,VALID,20.3713,VALID,107,VALID,0.983041,
2002-12-21, 00:29:00,VALID,915.688,VALID,0,VALID,97.1391,VALID,-0.0679233,VALID,20.3581,VALID,120,VALID,1.01933,
2002-12-21, 00:30:00,VALID,915.665,VALID,0,VALID,97.2345,VALID,-0.101885,VALID,20.3718,VALID,115,VALID,0.948117,
2002-12-21, 00:31:00,VALID,915.641,VALID,0,VALID,97.2612,VALID,-0.0339617,VALID,20.3576,VALID,109,VALID,0.782769,
2002-12-21, 00:32:00,VALID,915.63,VALID,0,VALID,97.3858,VALID,-0.0339617,VALID,20.3417,VALID,114,VALID,1.31953,
2002-12-21, 00:33:00,VALID,915.613,VALID,0,VALID,97.5105,VALID,-0.0679233,VALID,20.3449,VALID,98,VALID,1.15169,
2002-12-21, 00:34:00,VALID,915.605,VALID,0,VALID,97.63,VALID,-0.0339617,VALID,20.3419,VALID,125,VALID,0.995393,
2002-12-21, 00:35:00,VALID,915.604,VALID,0,VALID,97.7635,VALID,-0.0339617,VALID,20.3382,VALID,108,VALID,0.644531,
2002-12-21, 00:36:00,VALID,915.613,VALID,0,VALID,97.8106,VALID,-0.0679233,VALID,20.3285,VALID,106,VALID,1.06016,
2002-12-21, 00:37:00,VALID,915.621,VALID,0,VALID,97.9364,VALID,-0.0509425,VALID,20.3188,VALID,100,VALID,0.757612,
2002-12-21, 00:38:00,VALID,915.623,VALID,0,VALID,97.9759,VALID,-0.0509425,VALID,20.3226,VALID,72,VALID,0.934966,
2002-12-21, 00:39:00,VALID,915.632,VALID,0,VALID,98.0458,VALID,-0.0509425,VALID,20.3027,VALID,69,VALID,1.20898,
2002-12-21, 00:40:00,VALID,915.631,VALID,0,VALID,98.1183,VALID,-0.0509425,VALID,20.3226,VALID,74,VALID,0.882031,
2002-12-21, 00:41:00,VALID,915.638,VALID,0,VALID,98.0725,VALID,-0.0849042,VALID,20.3129,VALID,91,VALID,0.966005,
2002-12-21, 00:42:00,VALID,915.637,VALID,0,VALID,98.1119,VALID,-0.0339617,VALID,20.3064,VALID,88,VALID,0.823153,
2002-12-21, 00:43:00,VALID,915.631,VALID,0,VALID,98.1056,VALID,-0.0509425,VALID,20.3129,VALID,88,VALID,0.678085,
2002-12-21, 00:44:00,VALID,915.633,VALID,0,VALID,98.131,VALID,-0.0169808,VALID,20.2965,VALID,117,VALID,0.838942,
2002-12-21, 00:45:00,VALID,915.607,VALID,0,VALID,98.1793,VALID,-0.0339617,VALID,20.2897,VALID,112,VALID,0.868555,
2002-12-21, 00:46:00,VALID,915.589,VALID,0,VALID,98.1933,VALID,-0.0169808,VALID,20.2932,VALID,117,VALID,0.733173,
2002-12-21, 00:47:00,VALID,915.587,VALID,0,VALID,98.2098,VALID,0,VALID,20.2994,VALID,117,VALID,0.642149,
2002-12-21, 00:48:00,VALID,915.593,VALID,0,VALID,98.192,VALID,0,VALID,20.3126,VALID,116,VALID,0.780828,
2002-12-21, 00:49:00,VALID,915.59,VALID,0,VALID,98.1374,VALID,0,VALID,20.3124,VALID,113,VALID,0.823117,
2002-12-21, 00:50:00,VALID,915.598,VALID,0,VALID,98.1246,VALID,0,VALID,20.3091,VALID,105,VALID,0.739258,
2002-12-21, 00:51:00,VALID,915.591,VALID,0,VALID,98.1043,VALID,-0.0169808,VALID,20.3193,VALID,102,VALID,0.90968,
2002-12-21, 00:52:00,VALID,915.583,VALID,0,VALID,98.0433,VALID,-0.0169808,VALID,20.3129,VALID,104,VALID,0.695313,
2002-12-21, 00:53:00,VALID,915.573,VALID,0,VALID,97.9898,VALID,-0.0169808,VALID,20.3024,VALID,108,VALID,1.0171,
2002-12-21, 00:54:00,VALID,915.584,VALID,0,VALID,97.9504,VALID,-0.0509425,VALID,20.3158,VALID,88,VALID,0.865699,
2002-12-21, 00:55:00,VALID,915.575,VALID,0,VALID,97.9136,VALID,-0.0339617,VALID,20.3191,VALID,91,VALID,0.794457,
2002-12-21, 00:56:00,VALID,915.596,VALID,0,VALID,97.7877,VALID,0,VALID,20.3094,VALID,104,VALID,0.97234,
2002-12-21, 00:57:00,VALID,915.608,VALID,0,VALID,97.7279,VALID,-0.0339617,VALID,20.3126,VALID,110,VALID,0.937109,
2002-12-21, 00:58:00,VALID,915.626,VALID,0,VALID,97.6669,VALID,-0.0339617,VALID,20.3253,VALID,122,VALID,0.899107,
2002-12-21, 00:59:00,VALID,915.655,VALID,0,VALID,97.6363,VALID,-0.0169808,VALID,20.3352,VALID,132,VALID,0.746094,
2002-12-21, 01:00:00,VALID,915.701,VALID,0,VALID,97.6249,VALID,-0.0509425,VALID,20.3484,VALID,139,VALID,0.880357,
2002-12-21, 01:01:00,VALID,915.723,VALID,0,VALID,97.6236,VALID,0,VALID,20.3447,VALID,144,VALID,1.06785,
2002-12-21, 01:02:00,VALID,915.754,VALID,0,VALID,97.6592,VALID,-0.0339617,VALID,20.3546,VALID,128,VALID,0.880345,
2002-12-21, 01:03:00,VALID,915.764,VALID,0,VALID,97.6681,VALID,-0.0509425,VALID,20.3226,VALID,91,VALID,0.693873,
2002-12-21, 01:04:00,VALID,915.779,VALID,0,VALID,97.7304,VALID,-0.0339617,VALID,20.3258,VALID,75,VALID,0.610814,
2002-12-21, 01:05:00,VALID,915.759,VALID,0,VALID,97.7126,VALID,-0.0339617,VALID,20.2997,VALID,50,VALID,0.764391,
2002-12-21, 01:06:00,VALID,915.746,VALID,0,VALID,97.7571,VALID,-0.0849042,VALID,20.3005,VALID,50,VALID,0.9125,
2002-12-21, 01:07:00,VALID,915.717,VALID,0,VALID,97.7838,VALID,-0.0339617,VALID,20.2997,VALID,62,VALID,0.672564,
2002-12-21, 01:08:00,VALID,915.679,VALID,0,VALID,97.6745,VALID,-0.0169808,VALID,20.3099,VALID,94,VALID,0.88722,
2002-12-21, 01:09:00,VALID,915.62,VALID,0,VALID,97.5473,VALID,-0.0169808,VALID,20.2733,VALID,129,VALID,0.811899,
2002-12-21, 01:10:00,VALID,915.583,VALID,0,VALID,97.56,VALID,-0.0509425,VALID,20.2746,VALID,145,VALID,1.04009,
2002-12-21, 01:11:00,VALID,915.543,VALID,0,VALID,97.4901,VALID,-0.0339617,VALID,20.2517,VALID,141,VALID,1.07151,
2002-12-21, 01:12:00,VALID,915.505,VALID,0,VALID,97.4011,VALID,-0.0339617,VALID,20.2346,VALID,145,VALID,1.15995,
2002-12-21, 01:13:00,VALID,915.478,VALID,0,VALID,97.3108,VALID,-0.0169808,VALID,20.2154,VALID,141,VALID,0.713542,
2002-12-21, 01:14:00,VALID,915.469,VALID,0,VALID,97.2549,VALID,-0.0169808,VALID,20.2192,VALID,137,VALID,0.866044,
2002-12-21, 01:15:00,VALID,915.453,VALID,0,VALID,97.2574,VALID,0,VALID,20.2124,VALID,123,VALID,0.884215,
2002-12-21, 01:16:00,VALID,915.454,VALID,0,VALID,97.3273,VALID,0.0169808,VALID,20.2224,VALID,115,VALID,0.954963,
2002-12-21, 01:17:00,VALID,915.429,VALID,0,VALID,97.3909,VALID,-0.0169808,VALID,20.1995,VALID,125,VALID,0.778711,
2002-12-21, 01:18:00,VALID,915.4,VALID,0,VALID,97.4227,VALID,-0.0339617,VALID,20.1799,VALID,119,VALID,1.24261,
2002-12-21, 01:19:00,VALID,915.365,VALID,0,VALID,97.5219,VALID,-0.0509425,VALID,20.1804,VALID,140,VALID,0.744141,
2002-12-21, 01:20:00,VALID,915.346,VALID,0,VALID,97.5867,VALID,0,VALID,20.1737,VALID,113,VALID,0.704975,
2002-12-21, 01:21:00,VALID,915.302,VALID,0,VALID,97.5588,VALID,-0.0679233,VALID,20.1677,VALID,128,VALID,0.865091,
2002-12-21, 01:22:00,VALID,915.271,VALID,0,VALID,97.5321,VALID,0,VALID,20.1702,VALID,121,VALID,0.911106,
2002-12-21, 01:23:00,VALID,915.25,VALID,0,VALID,97.4342,VALID,-0.0169808,VALID,20.1403,VALID,122,VALID,1.29647,
2002-12-21, 01:24:00,VALID,915.207,VALID,0,VALID,97.349,VALID,0.0169808,VALID,20.1374,VALID,125,VALID,1.41749,
2002-12-21, 01:25:00,VALID,915.19,VALID,0,VALID,97.3642,VALID,0,VALID,20.1239,VALID,100,VALID,0.812089,
2002-12-21, 01:26:00,VALID,915.159,VALID,0,VALID,97.3375,VALID,0,VALID,20.1374,VALID,125,VALID,0.759014,
2002-12-21, 01:27:00,VALID,915.141,VALID,0,VALID,97.2142,VALID,0.0169808,VALID,20.1309,VALID,112,VALID,0.790264,
2002-12-21, 01:28:00,VALID,915.092,VALID,0,VALID,97.0667,VALID,0,VALID,20.1341,VALID,118,VALID,0.939503,
2002-12-21, 01:29:00,VALID,915.065,VALID,0,VALID,96.9522,VALID,0,VALID,20.1438,VALID,108,VALID,0.682422,
2002-12-21, 01:30:00,VALID,915.053,VALID,0,VALID,96.8963,VALID,0,VALID,20.1411,VALID,116,VALID,0.70625,
2002-12-21, 01:31:00,VALID,915.044,VALID,0,VALID,96.8607,VALID,-0.0169808,VALID,20.1441,VALID,94,VALID,0.749428,
2002-12-21, 01:32:00,VALID,915.042,VALID,0,VALID,96.9141,VALID,0,VALID,20.1667,VALID,80,VALID,0.587277,
2002-12-21, 01:33:00,VALID,915.025,VALID,0,VALID,96.8149,VALID,0,VALID,20.163,VALID,87,VALID,0.855997,
2002-12-21, 01:34:00,VALID,915.039,VALID,0,VALID,96.731,VALID,-0.0169808,VALID,20.1729,VALID,93,VALID,1.07834,
2002-12-21, 01:35:00,VALID,915.055,VALID,0,VALID,96.6737,VALID,0,VALID,20.1635,VALID,83,VALID,0.867399,
2002-12-21, 01:36:00,VALID,915.086,VALID,0,VALID,96.6483,VALID,-0.0169808,VALID,20.1535,VALID,93,VALID,1.04688,
2002-12-21, 01:37:00,VALID,915.119,VALID,0,VALID,96.6623,VALID,-0.0339617,VALID,20.1473,VALID,86,VALID,0.961349,
2002-12-21, 01:38:00,VALID,915.14,VALID,0,VALID,96.736,VALID,0,VALID,20.1446,VALID,78,VALID,0.694111,
2002-12-21, 01:39:00,VALID,915.136,VALID,0,VALID,96.7691,VALID,0,VALID,20.1505,VALID,97,VALID,0.814236,
2002-12-21, 01:40:00,VALID,915.129,VALID,0,VALID,96.7844,VALID,-0.0169808,VALID,20.1508,VALID,105,VALID,0.845117,
2002-12-21, 01:41:00,VALID,915.092,VALID,0,VALID,96.8009,VALID,-0.0169808,VALID,20.1438,VALID,76,VALID,0.367622,
2002-12-21, 01:42:00,VALID,915.091,VALID,0,VALID,96.8543,VALID,-0.0339617,VALID,20.1605,VALID,94,VALID,0.354567,
2002-12-21, 01:43:00,VALID,915.092,VALID,0,VALID,96.8441,VALID,0,VALID,20.1538,VALID,104,VALID,0.375586,
2002-12-21, 01:44:00,VALID,915.108,VALID,0,VALID,96.8352,VALID,0,VALID,20.1602,VALID,97,VALID,0.672656,
2002-12-21, 01:45:00,VALID,915.123,VALID,0,VALID,96.8988,VALID,0,VALID,20.1406,VALID,114,VALID,0.716947,
2002-12-21, 01:46:00,VALID,915.125,VALID,0,VALID,96.998,VALID,0,VALID,20.1379,VALID,111,VALID,0.381123,
2002-12-21, 01:47:00,VALID,915.115,VALID,0,VALID,97.1582,VALID,-0.0169808,VALID,20.1508,VALID,158,VALID,0.451367,
2002-12-21, 01:48:00,VALID,915.115,VALID,0,VALID,97.3248,VALID,-0.0169808,VALID,20.1607,VALID,132,VALID,0.203711,
2002-12-21, 01:49:00,VALID,915.117,VALID,0,VALID,97.4469,VALID,-0.0169808,VALID,20.1734,VALID,67,VALID,0.235008,
2002-12-21, 01:50:00,VALID,915.119,VALID,0,VALID,97.5219,VALID,0,VALID,20.1766,VALID,54,VALID,0.142519,
2002-12-21, 01:51:00,VALID,915.103,VALID,0,VALID,97.4939,VALID,-0.0169808,VALID,20.1734,VALID,51,VALID,0.0228365,
2002-12-21, 01:52:00,VALID,915.102,VALID,0,VALID,97.5155,VALID,0,VALID,20.1734,VALID,51,VALID,0.0855369,
2002-12-21, 01:53:00,VALID,915.089,VALID,0,VALID,97.5295,VALID,-0.0339617,VALID,20.1533,VALID,54,VALID,0.145313,
2002-12-21, 01:54:00,VALID,915.079,VALID,0,VALID,97.5626,VALID,-0.0509425,VALID,20.1503,VALID,143,VALID,0.522636,
2002-12-21, 01:55:00,VALID,915.076,VALID,0,VALID,97.6211,VALID,0.0339617,VALID,20.1505,VALID,160,VALID,0.767912,
2002-12-21, 01:56:00,VALID,915.087,VALID,0,VALID,97.6287,VALID,0,VALID,20.1575,VALID,152,VALID,1,
2002-12-21, 01:57:00,VALID,915.088,VALID,0,VALID,97.6834,VALID,0,VALID,20.1215,VALID,157,VALID,1.01482,
2002-12-21, 01:58:00,VALID,915.082,VALID,0,VALID,97.6936,VALID,0.0169808,VALID,20.1147,VALID,158,VALID,1.13652,
2002-12-21, 01:59:00,VALID,915.069,VALID,0,VALID,97.6808,VALID,-0.0169808,VALID,20.0926,VALID,163,VALID,1.22923,
2002-12-21, 02:00:00,VALID,915.059,VALID,0,VALID,97.6046,VALID,0,VALID,20.0727,VALID,173,VALID,0.950648,
2002-12-21, 02:01:00,VALID,915.038,VALID,0,VALID,97.4914,VALID,-0.0169808,VALID,20.07,VALID,170,VALID,1.02449,
2002-12-21, 02:02:00,VALID,915.023,VALID,0,VALID,97.4113,VALID,0,VALID,20.0727,VALID,173,VALID,0.943824,
2002-12-21, 02:03:00,VALID,915.038,VALID,0,VALID,97.3248,VALID,0,VALID,20.0762,VALID,177,VALID,0.988467,
2002-12-21, 02:04:00,VALID,915.036,VALID,0,VALID,97.2688,VALID,0,VALID,20.0956,VALID,172,VALID,0.971073,
2002-12-21, 02:05:00,VALID,915.052,VALID,0,VALID,97.235,VALID,0,VALID,20.1056,VALID,167,VALID,0.952324,
2002-12-21, 02:06:00,VALID,915.052,VALID,0,VALID,97.2498,VALID,0,VALID,20.1056,VALID,163,VALID,0.907589,
2002-12-21, 02:07:00,VALID,915.06,VALID,0,VALID,97.3045,VALID,-0.0679233,VALID,20.1033,VALID,159,VALID,0.902127,
2002-12-21, 02:08:00,VALID,915.043,VALID,0,VALID,97.368,VALID,-0.0509425,VALID,20.1058,VALID,160,VALID,0.885268,
2002-12-21, 02:09:00,VALID,915.009,VALID,0,VALID,97.4049,VALID,-0.0339617,VALID,20.1163,VALID,178,VALID,1.00802,
2002-12-21, 02:10:00,VALID,914.978,VALID,0,VALID,97.424,VALID,-0.0169808,VALID,20.1165,VALID,166,VALID,0.791324,
2002-12-21, 02:11:00,VALID,914.969,VALID,0,VALID,97.424,VALID,-0.101885,VALID,20.1028,VALID,167,VALID,0.746505,
2002-12-21, 02:12:00,VALID,914.927,VALID,0,VALID,97.4189,VALID,-0.0679233,VALID,20.1163,VALID,175,VALID,0.744038,
2002-12-21, 02:13:00,VALID,914.906,VALID,0,VALID,97.4151,VALID,-0.0849042,VALID,20.1158,VALID,155,VALID,0.760691,
2002-12-21, 02:14:00,VALID,914.888,VALID,0,VALID,97.4138,VALID,-0.101885,VALID,20.1394,VALID,125,VALID,0.508008,
2002-12-21, 02:15:00,VALID,914.879,VALID,0,VALID,97.3757,VALID,-0.0679233,VALID,20.1749,VALID,124,VALID,0.631893,
2002-12-21, 02:16:00,VALID,914.87,VALID,0.2,VALID,97.1493,VALID,-0.0849042,VALID,20.1682,VALID,114,VALID,0.792268,
2002-12-21, 02:17:00,VALID,914.824,VALID,0,VALID,97.0412,VALID,-0.0679233,VALID,20.1814,VALID,118,VALID,0.730569,
2002-12-21, 02:18:00,VALID,914.802,VALID,0.2,VALID,96.9446,VALID,-0.0679233,VALID,20.2105,VALID,134,VALID,0.817023,
2002-12-21, 02:19:00,VALID,914.761,VALID,0,VALID,96.9497,VALID,-0.0849042,VALID,20.2127,VALID,158,VALID,0.661659,
2002-12-21, 02:20:00,VALID,914.701,VALID,0.2,VALID,96.942,VALID,-0.0849042,VALID,20.2485,VALID,176,VALID,0.789885,
2002-12-21, 02:21:00,VALID,914.652,VALID,0,VALID,96.8785,VALID,-0.0849042,VALID,20.2649,VALID,165,VALID,0.860377,
2002-12-21, 02:22:00,VALID,914.609,VALID,0,VALID,96.8721,VALID,0.0169808,VALID,20.2736,VALID,176,VALID,0.837462,
2002-12-21, 02:23:00,VALID,914.59,VALID,0.2,VALID,96.9179,VALID,0.0339617,VALID,20.2569,VALID,165,VALID,0.595954,
2002-12-21, 02:24:00,VALID,914.597,VALID,0,VALID,96.9993,VALID,0,VALID,20.2674,VALID,146,VALID,0.665901,
2002-12-21, 02:25:00,VALID,914.594,VALID,0,VALID,97.0768,VALID,0.0169808,VALID,20.2477,VALID,102,VALID,0.841211,
2002-12-21, 02:26:00,VALID,914.601,VALID,0,VALID,97.1684,VALID,0,VALID,20.2542,VALID,47,VALID,0.937289,
2002-12-21, 02:27:00,VALID,914.628,VALID,0,VALID,97.293,VALID,0.0339617,VALID,20.2507,VALID,36,VALID,1.23418,
2002-12-21, 02:28:00,VALID,914.657,VALID,0,VALID,97.3617,VALID,0.0169808,VALID,20.2499,VALID,37,VALID,1.53886,
2002-12-21, 02:29:00,VALID,914.686,VALID,0,VALID,97.4901,VALID,0.0169808,VALID,20.2636,VALID,27,VALID,1.69531,
2002-12-21, 02:30:00,VALID,914.714,VALID,0.2,VALID,97.4049,VALID,0,VALID,20.2184,VALID,29,VALID,1.62774,
2002-12-21, 02:31:00,VALID,914.745,VALID,0,VALID,97.3935,VALID,0.0169808,VALID,20.1694,VALID,45,VALID,1.69531,
2002-12-21, 02:32:00,VALID,914.755,VALID,0,VALID,97.5015,VALID,0.0169808,VALID,20.1406,VALID,37,VALID,1.35728,
2002-12-21, 02:33:00,VALID,914.741,VALID,0,VALID,97.6732,VALID,0.0169808,VALID,20.1118,VALID,35,VALID,1.0845,
2002-12-21, 02:34:00,VALID,914.717,VALID,0,VALID,97.822,VALID,0,VALID,20.079,VALID,42,VALID,0.870994,
2002-12-21, 02:35:00,VALID,914.679,VALID,0,VALID,97.8868,VALID,0.0169808,VALID,20.0596,VALID,45,VALID,1.10337,
2002-12-21, 02:36:00,VALID,914.638,VALID,0,VALID,97.9708,VALID,0.0169808,VALID,20.0504,VALID,67,VALID,0.974359,
2002-12-21, 02:37:00,VALID,914.615,VALID,0,VALID,98.0878,VALID,0.0169808,VALID,20.0412,VALID,57,VALID,0.645117,
2002-12-21, 02:38:00,VALID,914.592,VALID,0,VALID,98.178,VALID,0.0169808,VALID,20.0243,VALID,57,VALID,0.288477,
2002-12-21, 02:39:00,VALID,914.569,VALID,0.2,VALID,98.2849,VALID,0,VALID,20.031,VALID,51,VALID,0.345656,
2002-12-21, 02:40:00,VALID,914.542,VALID,0,VALID,98.398,VALID,0,VALID,20.0337,VALID,31,VALID,0.621652,
2002-12-21, 02:41:00,VALID,914.525,VALID,0,VALID,98.4909,VALID,0.0679233,VALID,20.0399,VALID,26,VALID,0.542863,
2002-12-21, 02:42:00,VALID,914.493,VALID,0,VALID,98.5265,VALID,0.0169808,VALID,20.0633,VALID,24,VALID,0.467272,
2002-12-21, 02:43:00,VALID,914.453,VALID,0,VALID,98.4718,VALID,0.0169808,VALID,20.024,VALID,24,VALID,0.319046,
2002-12-21, 02:44:00,VALID,914.441,VALID,0,VALID,98.5799,VALID,0.0169808,VALID,20.0173,VALID,24,VALID,0.0960366,
2002-12-21, 02:45:00,VALID,914.388,VALID,0.2,VALID,98.6549,VALID,0.0339617,VALID,20.0407,VALID,24,VALID,0,
2002-12-21, 02:46:00,VALID,914.361,VALID,0,VALID,98.6791,VALID,0.0169808,VALID,20.0367,VALID,24,VALID,0,
2002-12-21, 02:47:00,VALID,914.331,VALID,0,VALID,98.7261,VALID,0.0339617,VALID,20.0499,VALID,24,VALID,0,
2002-12-21, 02:48:00,VALID,914.285,VALID,0,VALID,98.7477,VALID,0.0339617,VALID,20.0529,VALID,24,VALID,0,
2002-12-21, 02:49:00,VALID,914.257,VALID,0.2,VALID,98.7019,VALID,0.0339617,VALID,20.0345,VALID,24,VALID,0,
2002-12-21, 02:50:00,VALID,914.241,VALID,0,VALID,98.7325,VALID,0.0339617,VALID,20.0081,VALID,24,VALID,0,
2002-12-21, 02:51:00,VALID,914.24,VALID,0,VALID,98.8037,VALID,0,VALID,20.0372,VALID,24,VALID,0.151562,
2002-12-21, 02:52:00,VALID,914.251,VALID,0,VALID,98.8596,VALID,0.0849042,VALID,20.0466,VALID,24,VALID,0.613477,
2002-12-21, 02:53:00,VALID,914.284,VALID,0,VALID,98.8762,VALID,0,VALID,20.0695,VALID,24,VALID,1.03065,
2002-12-21, 02:54:00,VALID,914.321,VALID,0,VALID,98.8533,VALID,0.0169808,VALID,20.0534,VALID,27,VALID,1.10389,
2002-12-21, 02:55:00,VALID,914.332,VALID,0.2,VALID,98.7566,VALID,0.0339617,VALID,20.0278,VALID,27,VALID,0.85918,
2002-12-21, 02:56:00,VALID,914.326,VALID,0,VALID,98.7019,VALID,0.0339617,VALID,19.9659,VALID,26,VALID,0.580469,
2002-12-21, 02:57:00,VALID,914.304,VALID,0,VALID,98.7058,VALID,0.0169808,VALID,19.9405,VALID,23,VALID,0.342905,
2002-12-21, 02:58:00,VALID,914.273,VALID,0,VALID,98.7719,VALID,0.0169808,VALID,19.911,VALID,25,VALID,0.128788,
2002-12-21, 02:59:00,VALID,914.24,VALID,0,VALID,98.7795,VALID,0.0169808,VALID,19.9184,VALID,26,VALID,0.127404,
2002-12-21, 03:00:00,VALID,914.242,VALID,0,VALID,98.7871,VALID,0,VALID,19.8918,VALID,43,VALID,0.239583,
2002-12-21, 03:01:00,VALID,914.242,VALID,0,VALID,98.8062,VALID,0,VALID,19.8781,VALID,56,VALID,0.251367,
2002-12-21, 03:02:00,VALID,914.247,VALID,0,VALID,98.8088,VALID,0,VALID,19.8759,VALID,56,VALID,0.228365,
2002-12-21, 03:03:00,VALID,914.245,VALID,0,VALID,98.8227,VALID,0,VALID,19.8667,VALID,65,VALID,0.347561,
2002-12-21, 03:04:00,VALID,914.247,VALID,0,VALID,98.8494,VALID,0,VALID,19.8595,VALID,84,VALID,0.350718,
2002-12-21, 03:05:00,VALID,914.242,VALID,0,VALID,98.8749,VALID,0.0509425,VALID,19.8526,VALID,84,VALID,0.263021,
2002-12-21, 03:06:00,VALID,914.243,VALID,0,VALID,98.8723,VALID,0.0339617,VALID,19.8692,VALID,84,VALID,0.211523,
2002-12-21, 03:07:00,VALID,914.241,VALID,0,VALID,98.9614,VALID,-0.0169808,VALID,19.8874,VALID,77,VALID,0.301258,
2002-12-21, 03:08:00,VALID,914.24,VALID,0,VALID,98.9804,VALID,0,VALID,19.9189,VALID,58,VALID,0.382813,
2002-12-21, 03:09:00,VALID,914.256,VALID,0,VALID,98.9779,VALID,-0.0169808,VALID,19.9321,VALID,58,VALID,0.322635,
2002-12-21, 03:10:00,VALID,914.246,VALID,0,VALID,98.9753,VALID,-0.0169808,VALID,19.9418,VALID,58,VALID,0.046875,
2002-12-21, 03:11:00,VALID,914.246,VALID,0,VALID,98.9804,VALID,-0.0339617,VALID,19.9582,VALID,58,VALID,0,
2002-12-21, 03:12:00,VALID,914.244,VALID,0,VALID,98.9626,VALID,0,VALID,19.9448,VALID,58,VALID,0,
2002-12-21, 03:13:00,VALID,914.229,VALID,0,VALID,98.9308,VALID,-0.0169808,VALID,19.9485,VALID,74,VALID,0.141211,
2002-12-21, 03:14:00,VALID,914.217,VALID,0,VALID,98.9092,VALID,-0.0169808,VALID,19.9455,VALID,135,VALID,0.435491,
2002-12-21, 03:15:00,VALID,914.211,VALID,0,VALID,98.8876,VALID,0,VALID,19.9291,VALID,168,VALID,0.587457,
2002-12-21, 03:16:00,VALID,914.217,VALID,0,VALID,98.8634,VALID,0,VALID,19.909,VALID,164,VALID,0.541964,
2002-12-21, 03:17:00,VALID,914.223,VALID,0,VALID,98.8749,VALID,-0.0169808,VALID,19.9025,VALID,155,VALID,0.57463,
2002-12-21, 03:18:00,VALID,914.231,VALID,0,VALID,98.8698,VALID,-0.0169808,VALID,19.8966,VALID,155,VALID,0.254729,
2002-12-21, 03:19:00,VALID,914.245,VALID,0,VALID,98.8444,VALID,0,VALID,19.8936,VALID,157,VALID,0.44778,
2002-12-21, 03:20:00,VALID,914.245,VALID,0,VALID,98.8367,VALID,-0.0169808,VALID,19.8677,VALID,159,VALID,0.348067,
2002-12-21, 03:21:00,VALID,914.25,VALID,0,VALID,98.8456,VALID,-0.0509425,VALID,19.8543,VALID,157,VALID,0.442229,
2002-12-21, 03:22:00,VALID,914.245,VALID,0,VALID,98.8685,VALID,-0.0169808,VALID,19.8575,VALID,148,VALID,0.399609,
2002-12-21, 03:23:00,VALID,914.236,VALID,0,VALID,98.8825,VALID,0,VALID,19.8478,VALID,148,VALID,0.54136,
2002-12-21, 03:24:00,VALID,914.222,VALID,0,VALID,98.8978,VALID,-0.0169808,VALID,19.8444,VALID,148,VALID,0.510016,
2002-12-21, 03:25:00,VALID,914.229,VALID,0,VALID,98.8901,VALID,0,VALID,19.8444,VALID,149,VALID,0.497796,
2002-12-21, 03:26:00,VALID,914.218,VALID,0,VALID,98.8889,VALID,-0.0169808,VALID,19.8444,VALID,138,VALID,0.421875,
2002-12-21, 03:27:00,VALID,914.221,VALID,0,VALID,98.8787,VALID,0,VALID,19.8314,VALID,101,VALID,0.733173,
2002-12-21, 03:28:00,VALID,914.217,VALID,0,VALID,98.8596,VALID,-0.0509425,VALID,19.8222,VALID,87,VALID,0.907484,
2002-12-21, 03:29:00,VALID,914.219,VALID,0,VALID,98.8889,VALID,-0.0169808,VALID,19.8155,VALID,80,VALID,1.11659,
2002-12-21, 03:30:00,VALID,914.212,VALID,0,VALID,98.8762,VALID,-0.0169808,VALID,19.8116,VALID,74,VALID,1.24733,
2002-12-21, 03:31:00,VALID,914.206,VALID,0,VALID,98.8278,VALID,0,VALID,19.7994,VALID,76,VALID,1.22075,
2002-12-21, 03:32:00,VALID,914.209,VALID,0,VALID,98.8494,VALID,-0.0169808,VALID,19.7802,VALID,68,VALID,0.886489,
2002-12-21, 03:33:00,VALID,914.209,VALID,0,VALID,98.8494,VALID,-0.0169808,VALID,19.7673,VALID,74,VALID,0.987305,